Tracking 29528 objects as of 12-Sep-2024
HD Live streaming from Space Station
objects crossing your sky now

FENGYUN 1C DEB

Track FENGYUN 1C DEB now!
10-day predictions


NORAD ID: 31032
Int'l Code: 1999-025BEA
Perigee: 800.0 km
Apogee: 1,014.4 km
Inclination: 99.4 °
Period: 103.0 minutes
Semi major axis: 7278 km
RCS: 0.0169 m2 (small)
Launch date: May 10, 1999
Source: People's Republic of China (PRC)
Launch site: Taiyaun Space Center, China (TSC)

Note: This is SATELLITE DEBRIS
Your satellite tracking list
Your tracking list is empty




NASA's NSSDC Master Catalog

Two Line Element Set (TLE):
1 31032U 99025BEA 24256.24020274  .00011180  00000-0  71767-2 0  9995
2 31032  99.3975 245.8791 0147295   4.8332 121.2118 13.98182130885910
Source of the keplerian elements: AFSPC